Home > Weather > Menominee > Past weeks

Flag for USA Past Weather in Menominee, Michigan, USA — Yesterday and Last 2 Weeks

Now
50 °F

Sunny.


Feels Like: 47 °F
Forecast: 54 / 73 °F
Wind: 7 mph from Northwest

Location: Menominee Weather Reporting Station

Current Time: Jul 1, 2016 at 6:51:35 AM

Latest Report: Jul 1, 2016 at 5:56 AM


Visibility: 10 mi

Pressure: 30.11 "Hg

Humidity: 93%

Dew Point: 48 °F

Location of MenomineeLocation

Past Weather in Menominee — Graph

°F

Menominee Temperature Yesterday

Maximum temperature yesterday: 77 °F (at 1:56 PM)
Minimum temperature yesterday: 58 °F (at 5:56 AM)
Average temperature yesterday: 66 °F

High & Low Weather Summary for the Past Weeks

 TemperatureHumidityPressure
High85 °F (Jun 18, 2:56 PM)100% (Jun 17, 1:56 AM)30.26 "Hg (Jun 17, 1:56 AM)
Low47 °F (Jun 29, 4:56 AM)30% (Jun 20, 4:56 PM)29.84 "Hg (Jun 16, 4:56 AM)
Average68 °F66%30.05 "Hg
* Reported Jun 16 4:56 AM — Jul 1 4:56 AM, Menominee, Weather by CustomWeather, © 2016

Note: Actual official high and low records may vary slightly from our data, if they occured in-between our weather recording intervals... More about our weather records

Advertising

Menominee Weather History for the Previous 24 Hours

Scroll right to see more
 ConditionsComfort  
Time TempWeatherWind HumidityBarometerVisibility
4:56 AM
Fri, Jul 1
51 °FCool.7 mph92%30.09 "Hg10 mi
3:56 AM52 °FClear.7 mph93%30.07 "Hg10 mi
2:56 AM55 °FOvercast.10 mph90%30.03 "Hg10 mi
1:56 AM56 °FOvercast.9 mph90%30.01 "Hg10 mi
12:56 AM56 °FLight rain. Overcast.9 mph97%30.01 "Hg10 mi
11:56 PM
Thu, Jun 30
60 °FMostly cloudy.6 mph96%29.98 "Hg10 mi
10:56 PM60 °FPassing clouds.5 mph96%29.97 "Hg10 mi
9:56 PM61 °FLight rain. Passing clouds.5 mph97%29.96 "Hg10 mi
8:56 PM61 °FLight rain. Overcast.5 mph97%29.97 "Hg10 mi
7:48 PM62 °FMostly cloudy.6 mph96%29.97 "Hg10 mi
5:56 PM62 °FLight rain. Cloudy.No wind90%29.96 "Hg10 mi
4:56 PM62 °FLight rain. Mostly cloudy.3 mph90%29.98 "Hg10 mi
3:56 PM61 °FThundershowers. Mostly cloudy.10 mph93%29.95 "Hg10 mi
2:56 PM73 °FScattered clouds.14 mph64%29.91 "Hg10 mi
1:56 PM77 °FPassing clouds.16 mph56%29.92 "Hg10 mi
12:56 PM76 °FScattered clouds.12 mph54%29.93 "Hg10 mi
11:56 AM75 °FBroken clouds.10 mph58%29.97 "Hg10 mi
10:56 AM74 °FPartly sunny.6 mph56%29.98 "Hg10 mi
9:56 AM73 °FSunny.7 mph57%29.99 "Hg10 mi
8:56 AM71 °FSunny.6 mph63%30.01 "Hg10 mi
7:56 AM66 °FSunny.5 mph73%30.02 "Hg10 mi
6:56 AM61 °FSunny.3 mph81%30.03 "Hg10 mi
Weather by CustomWeather, © 2016

See weather overviewHow to use our weather pages